Weather History for Idaho Falls, ID

Change the Weather History Date:

Tuesday, June 3, 2014

  Actual Average Record
Temperature  
Mean Temperature 66 °F 58 °F  
Max Temperature 83 °F 72 °F 90 °F (1957)
Min Temperature 49 °F 43 °F 32 °F (1950)
Degree Days  
Heating Degree Days 0 8  
Month to date heating degree days 10 24  
Since 1 June heating degree days 10 24  
Since 1 July heating degree days 7220 7715  
Cooling Degree Days 1 0  
Month to date cooling degree days 1 0  
Year to date cooling degree days 2 2  
Since 1 June cooling degree days 1 0  
Growing Degree Days 16 (Base 50)    
Moisture  
Dew Point 38 °F    
Average Humidity 40    
Maximum Humidity 64    
Minimum Humidity 15    
Precipitation  
Precipitation 0.00 in 0.05 in 0.91 in (1993)
Month to date precipitation 0.00 0.16  
Year to date precipitation 3.43 5.01  
Sea Level Pressure  
Sea Level Pressure 29.75 in    
Wind  
Wind Speed 13 mph (SSW)    
Max Wind Speed 31 mph    
Max Gust Speed 40 mph    
Visibility 10 miles    
Events Thunderstorm    
T = Trace of Precipitation, MM = Missing Value Source: NWS Daily Summary

Daily Weather History Graph

Daily Weather History Graph

Search for Another Location

Airport:

Trip Planner

Search our weather history database for the weather conditions in past years. The results will help you decide how hot, cold, wet, or windy it might be!

Date:

Astronomy

Jun. 03, 2014 Rise Set
Actual Time 5:49 AM MDT 9:04 PM MDT
Civil Twilight 5:14 AM MDT 9:39 PM MDT
Nautical Twilight 4:28 AM MDT 10:24 PM MDT
Astronomical Twilight 3:33 AM MDT 11:20 PM MDT
Moon 11:22 AM MDT (6/3) 12:28 AM MDT (6/3)
Length of Visible Light 16h 25m
Length of Day
15h 14m
Waxing Crescent, 30% of the Moon is Illuminated
Jun 3
Waxing Crescent
Jun 5
First Quarter
Jun 12
Full
Jun 19
Last Quarter
Jun 27
New

Hourly Weather History & Observations

Time (MDT) Temp. Dew Point Humidity Pressure Visibility Wind Dir Wind Speed Gust Speed Precip Events Conditions
12:53 AM 63.0 °F 37.0 °F 38% 29.69 in 10.0 mi ENE 4.6 mph - N/A   Clear
1:53 AM 55.9 °F 43.0 °F 62% 29.68 in 10.0 mi North 6.9 mph - N/A   Clear
2:53 AM 55.9 °F 43.0 °F 62% 29.68 in 10.0 mi North 10.4 mph - N/A   Partly Cloudy
3:53 AM 55.9 °F 41.0 °F 57% 29.64 in 10.0 mi NNW 13.8 mph - N/A   Clear
4:53 AM 53.1 °F 39.9 °F 61% 29.65 in 10.0 mi North 6.9 mph - N/A   Clear
5:53 AM 51.1 °F 39.0 °F 63% 29.68 in 10.0 mi NNE 4.6 mph - N/A   Clear
6:53 AM 53.1 °F 41.0 °F 64% 29.73 in 10.0 mi SW 10.4 mph - N/A   Clear
7:04 AM 53.1 °F 42.1 °F 66% 29.85 in 10.0 mi SW 9.2 mph - N/A   Mostly Cloudy
7:53 AM 55.9 °F 41.0 °F 57% 29.73 in 10.0 mi SSE 5.8 mph - N/A   Mostly Cloudy
8:53 AM 61.0 °F 39.9 °F 46% 29.74 in 10.0 mi SE 5.8 mph - N/A   Mostly Cloudy
9:53 AM 62.1 °F 43.0 °F 50% 29.79 in 10.0 mi SW 5.8 mph - N/A   Mostly Cloudy
10:53 AM 66.9 °F 42.1 °F 40% 29.78 in 10.0 mi South 16.1 mph - N/A   Mostly Cloudy
11:53 AM 71.1 °F 45.0 °F 39% 29.78 in 10.0 mi South 15.0 mph - N/A   Scattered Clouds
12:53 PM 75.0 °F 45.0 °F 34% 29.76 in 10.0 mi SSW 19.6 mph 25.3 mph N/A   Scattered Clouds
1:53 PM 80.1 °F 37.9 °F 22% 29.75 in 10.0 mi SSW 23.0 mph 31.1 mph N/A   Scattered Clouds
2:53 PM 81.0 °F 39.0 °F 22% 29.73 in 10.0 mi South 25.3 mph 32.2 mph N/A   Widespread Dust
3:53 PM 81.0 °F 33.1 °F 18% 29.73 in 9.0 mi WSW 18.4 mph 40.3 mph N/A   Widespread Dust
4:53 PM 78.1 °F 32.0 °F 19% 29.74 in 10.0 mi SW 20.7 mph 32.2 mph N/A   Widespread Dust
5:12 PM 79.0 °F 33.1 °F 19% 29.86 in 10.0 mi SW 21.9 mph 31.1 mph N/A Thunderstorm Widespread Dust
5:53 PM 80.1 °F 28.9 °F 15% 29.75 in 10.0 mi SSW 23.0 mph 34.5 mph N/A Thunderstorm Widespread Dust
6:40 PM 79.0 °F 28.9 °F 16% 29.86 in 10.0 mi SSW 20.7 mph 35.7 mph N/A   Scattered Clouds
6:53 PM 79.0 °F 30.9 °F 17% 29.75 in 10.0 mi SSW 23.0 mph 28.8 mph N/A   Scattered Clouds
7:53 PM 75.0 °F 28.9 °F 18% 29.75 in 10.0 mi SW 17.3 mph 24.2 mph N/A   Clear
9:53 PM 62.1 °F 41.0 °F 46% 29.81 in 10.0 mi SSW 10.4 mph - N/A   Clear